GEFSMA_con_probscp_222.txt.gz
Probability
0 0 0 0 0 0 0 0 0 0 0 0 0 0 0 0 0 0 0 0 0 0 0 0 0 0 0 0 0 0 0 0 0 0 0 0 0 0 0 0 0 0 0
0 0 0 0 0 0 0 0 0 0 0 0 0 0 0 0 0 0 0 0 0 0 0 0 0 0 0 0 0 0 0 0 0 0 0 0 0 0 0 0 0 0 0
0 0 0 0 0 0 0 0 0 0 0 0 0 0 0 0 0 0 0 0 0 0 0 0 0 0 0 0 0 0 0 0 0 0 0 0 0 0 0 0 0 0 0
0 1 1 1 0 0 0 0 0 0 0 0 0 0 0 0 0 0 0 0 0 0 0 0 0 0 0 0 0 0 1 1 1 1 0 0 0 0 0 0 0 0 0
1 2 2 2 1 1 0 0 0 0 0 0 0 0 0 0 0 0 0 0 0 0 0 0 0 0 0 0 0 0 1 2 2 2 1 1 0 0 0 0 0 0 0
2 3 4 3 3 2 1 1 0 0 0 0 0 0 0 0 0 0 0 0 0 0 0 0 0 0 0 0 0 0 1 1 1 2 2 2 1 1 0 0 0 0 0
5 5 5 5 5 5 4 2 1 0 0 0 0 0 0 0 0 0 0 0 0 0 0 0 0 0 0 0 0 0 0 0 0 1 1 2 2 2 1 0 0 0 0
6 6 6 6 8 8 7 5 4 3 2 1 0 0 0 0 0 0 0 0 0 0 0 0 0 0 0 0 0 0 0 0 0 0 0 2 3 2 1 0 0 0 0
5 5 5 6 8 9 9 8 8 7 5 3 1 0 0 0 0 0 0 0 0 0 0 0 0 0 0 0 0 0 0 0 0 0 1 3 4 3 1 1 1 0 0
4 3 3 4 5 7 8 9 9 9 8 5 2 1 0 0 0 0 0 0 0 0 0 0 0 0 0 0 0 0 0 0 0 0 2 4 4 4 4 3 3 1 0
2 2 2 2 3 4 6 7 7 7 7 5 3 1 1 0 0 0 0 0 0 0 0 0 0 0 0 0 0 0 0 0 0 0 1 2 3 4 6 6 5 4 3
1 1 1 1 2 2 3 4 3 3 3 2 1 1 1 0 0 0 0 0 0 0 0 0 0 0 0 0 0 0 0 0 0 0 0 0 1 2 4 6 7 8 8
0 0 2 3 3 2 2 2 1 1 0 0 0 1 1 0 0 0 0 0 0 0 0 0 0 0 0 0 0 0 0 0 0 0 0 0 0 0 1 3 5 7 9
1 1 3 3 3 2 1 1 1 0 0 0 0 0 0 0 0 0 0 0 0 0 1 1 1 0 0 0 0 0 0 0 0 0 0 0 0 0 0 1 2 3 4
2 2 2 1 1 1 0 0 0 0 0 0 0 0 0 0 0 0 0 0 1 1 1 2 2 1 0 0 0 0 0 0 0 0 0 0 0 0 0 0 0 0 1
3 1 0 0 0 0 0 0 0 0 0 0 0 0 0 0 0 0 0 1 2 2 3 3 3 3 1 0 0 0 0 0 0 0 0 0 0 0 0 0 0 0 0
4 2 1 0 0 0 0 0 0 0 0 0 0 0 0 0 0 0 0 2 3 3 3 3 3 4 3 1 0 0 0 0 0 0 0 0 0 0 0 0 0 0 0
6 5 3 2 1 1 1 2 1 0 0 0 0 0 0 0 0 0 1 2 3 3 3 2 3 4 3 2 1 0 0 1 1 0 0 0 0 0 0 0 0 0 0
6 6 5 4 3 3 3 3 2 1 0 0 0 0 0 0 0 1 2 3 3 3 3 3 4 4 3 2 1 0 0 1 1 0 0 0 0 0 0 0 0 0 0
5 5 5 3 3 4 4 4 3 2 2 1 0 0 0 0 1 2 3 3 3 3 3 4 4 4 2 1 0 0 0 1 1 0 0 0 1 1 1 0 0 0 0
6 6 5 3 3 4 3 3 3 4 4 3 2 1 1 1 2 2 2 2 2 3 3 3 4 4 3 1 0 0 0 0 0 1 1 1 2 2 2 1 0 0 0
10 9 6 4 3 3 2 1 2 4 6 6 5 4 3 2 1 1 0 1 1 1 2 3 4 5 3 2 0 0 1 1 1 2 2 2 3 4 3 1 0 0 0
15 11 7 4 3 2 1 0 1 3 5 5 5 4 3 2 1 0 0 0 0 0 1 3 4 5 4 2 1 1 2 2 2 3 4 3 4 4 3 2 1 0 0
16 12 7 5 4 3 1 0 1 2 3 2 3 3 2 1 0 0 0 0 0 0 0 1 3 3 3 2 1 1 2 2 2 3 3 4 3 2 1 2 1 0 0
15 12 9 8 6 3 1 0 0 1 1 0 1 2 1 0 0 0 0 0 0 0 0 0 1 1 1 1 0 1 1 1 1 1 3 3 2 0 0 1 1 0 0
15 13 11 10 7 4 1 0 0 0 0 0 0 1 1 0 0 0 0 0 1 1 1 0 0 0 0 0 0 1 2 2 1 1 2 2 1 0 0 0 0 0 0

GEFSMA_con_probscp_228.txt.gz
Probability
0 0 0 0 0 0 0 0 0 0 1 0 0 0 0 0 0 0 0 0 0 0 0 0 0 0 0 0 0 0 0 0 0 0 0 0 0 0 0 0 0 0 0
0 0 0 0 0 0 1 1 0 1 1 0 0 0 0 0 0 0 0 0 0 0 0 0 0 0 0 0 0 0 0 0 0 0 0 0 0 0 0 0 0 0 0
1 0 1 2 2 2 2 3 2 2 2 0 0 0 0 0 0 0 0 0 0 0 0 0 0 0 0 0 0 1 1 1 0 0 0 0 0 0 0 0 0 0 0
2 2 3 5 4 3 4 5 5 5 3 1 1 1 0 1 1 0 0 0 0 0 0 0 0 0 0 0 0 1 2 2 1 1 1 0 0 0 0 0 0 0 0
5 5 6 6 5 4 5 6 6 6 5 3 2 1 1 2 2 1 1 1 1 1 0 0 1 1 1 1 1 1 1 2 2 2 2 1 1 0 0 0 0 0 0
7 8 7 6 5 5 7 7 7 7 6 5 3 2 2 3 3 3 2 2 1 1 0 0 1 2 2 2 2 1 0 1 1 1 2 2 2 1 0 0 0 0 0
7 8 6 5 6 7 8 8 8 8 8 7 5 4 3 3 3 3 3 2 1 0 0 0 2 3 4 3 2 2 1 1 0 1 2 2 3 2 1 0 0 0 0
5 6 6 4 5 7 8 9 10 10 10 9 8 6 5 3 4 3 2 1 0 0 0 0 2 3 4 4 2 1 2 2 1 1 2 2 2 2 1 0 0 0 0
4 4 5 4 5 6 7 8 10 11 12 12 10 9 7 5 4 3 1 0 0 0 0 0 1 1 2 3 2 1 2 2 2 2 1 1 1 1 0 0 0 0 0
5 4 4 6 6 7 7 8 9 11 12 12 12 11 9 8 6 3 1 0 0 0 0 0 0 0 1 1 1 1 1 1 2 2 1 0 0 0 1 1 1 1 1
6 6 7 9 10 10 9 9 10 10 10 10 11 10 9 8 7 4 1 0 1 1 0 1 1 1 1 1 1 0 0 0 1 1 0 0 0 0 1 2 2 2 2
9 10 12 13 13 12 11 10 10 9 7 7 7 6 6 6 6 4 2 1 2 2 2 2 2 1 2 2 2 1 0 0 0 0 0 0 0 0 1 1 3 3 4
13 15 17 16 14 12 10 10 9 7 6 5 5 5 5 5 5 4 3 3 4 3 2 2 2 2 2 3 3 2 1 0 0 0 0 0 0 0 0 1 2 3 3
17 18 18 16 14 11 9 8 8 7 6 5 5 5 5 3 3 3 3 3 3 3 2 2 2 2 3 3 2 1 2 1 0 0 0 0 0 0 0 0 1 1 1
20 18 16 14 11 9 7 7 7 7 7 6 6 6 5 3 2 2 3 4 4 3 2 2 3 3 4 4 2 1 2 1 0 0 0 0 0 0 0 0 0 0 0
22 19 16 13 9 6 7 8 8 8 8 7 7 7 6 4 3 3 4 5 5 5 4 4 4 5 7 6 4 2 2 2 1 0 0 0 0 0 0 0 0 0 0
23 22 20 17 12 7 7 9 9 8 8 8 9 9 8 7 6 6 5 5 6 6 6 5 5 7 9 8 6 5 4 3 3 1 0 0 0 0 0 0 0 0 0
23 25 25 23 18 13 11 10 9 8 7 9 10 11 11 11 10 9 8 7 6 7 7 6 7 9 9 9 9 9 8 7 5 2 0 0 0 0 0 0 0 0 0
23 26 27 25 21 17 14 12 9 8 8 10 12 12 12 13 12 11 9 8 7 7 7 6 7 9 9 9 10 11 11 10 7 3 1 0 0 0 0 0 0 0 0
23 25 26 25 20 18 17 15 13 12 12 13 13 12 12 12 11 10 9 9 8 7 7 6 6 6 7 7 8 9 10 10 9 6 3 1 0 0 0 0 0 0 0
23 25 26 25 22 19 17 17 16 16 17 17 14 12 11 10 9 8 7 7 8 8 8 6 4 2 3 4 5 6 7 7 7 7 5 2 1 1 1 2 1 0 0
26 27 28 28 26 21 15 13 14 16 18 17 16 15 12 10 9 7 4 3 4 6 6 4 2 1 1 2 3 4 4 3 4 4 3 1 2 3 3 2 1 0 0
29 29 29 29 28 22 12 6 7 11 14 16 17 17 14 11 10 9 6 3 3 3 3 2 1 1 1 0 1 2 2 2 1 1 1 0 1 2 2 1 1 0 0
29 30 29 28 26 20 11 4 4 7 10 13 16 17 15 11 8 8 8 6 4 2 1 1 1 1 0 0 0 1 2 2 1 1 2 2 1 1 1 1 1 0 0
28 28 28 25 22 18 11 4 4 7 10 12 14 15 13 8 5 4 5 6 4 2 1 1 1 0 0 0 0 1 3 3 2 2 4 4 2 1 2 2 2 1 0
27 26 26 23 20 17 10 4 4 8 12 13 14 12 9 5 3 1 2 3 3 2 1 0 0 0 0 0 0 1 3 3 2 3 5 6 3 2 2 3 3 2 1

GEFSMA_con_probscp_234.txt.gz
Probability
4 3 4 4 3 2 4 6 6 5 3 2 1 0 0 1 1 1 1 0 0 0 0 1 0 0 0 1 1 2 2 2 1 0 0 0 0 0 0 0 0 0 0
6 6 7 7 6 5 5 7 7 6 5 4 3 2 2 2 2 3 3 2 0 0 1 2 1 0 0 1 2 2 2 2 2 1 0 0 0 0 0 0 0 0 0
9 8 8 9 8 8 8 8 9 9 8 7 6 4 3 4 5 6 5 4 2 1 1 2 2 1 0 1 1 1 1 2 3 3 1 1 0 0 0 0 0 0 0
11 10 9 10 10 9 8 9 9 9 8 7 6 5 5 5 6 6 5 5 4 3 2 2 2 1 1 1 2 2 2 2 3 3 2 1 1 0 0 0 0 0 0
12 11 11 12 12 11 10 8 8 8 8 7 6 5 5 6 6 5 6 7 7 7 5 3 2 2 2 3 5 5 5 5 4 2 2 1 1 0 0 0 0 0 0
11 10 10 11 12 12 11 9 8 8 8 8 7 6 6 6 6 6 7 8 9 9 8 7 6 4 3 4 5 6 7 6 5 3 1 0 1 1 0 0 0 0 0
11 10 9 9 10 11 11 10 9 8 8 9 8 7 7 6 7 8 8 7 8 8 8 9 10 9 6 5 5 6 6 5 4 4 3 1 1 1 0 0 0 0 0
13 12 10 8 7 9 9 9 9 9 8 8 8 7 6 6 7 8 7 6 6 8 10 12 15 14 11 9 7 6 6 5 3 4 4 2 1 1 0 0 0 0 0
15 15 14 10 7 7 8 8 9 9 9 8 7 7 6 5 5 5 5 5 7 9 11 14 16 16 14 13 11 8 6 4 3 4 5 5 4 3 2 1 1 1 0
19 20 20 16 11 9 8 9 9 9 8 7 7 7 6 5 4 4 3 3 6 8 10 12 13 12 13 15 15 12 7 3 1 3 5 6 5 5 4 3 3 2 2
24 24 26 24 20 16 14 14 12 11 9 7 7 6 5 4 4 4 2 1 2 5 8 10 9 9 12 15 16 11 5 1 0 1 2 3 4 5 4 3 3 3 3
29 28 29 29 28 25 23 20 15 12 10 8 7 5 4 3 3 3 2 0 0 2 4 6 7 9 12 14 12 6 2 0 0 0 0 0 1 3 3 2 2 2 2
34 34 35 36 34 30 28 23 17 12 11 9 8 6 5 4 3 2 1 1 1 1 2 3 4 8 11 13 10 3 0 0 0 0 0 0 1 2 3 2 1 1 1
37 41 44 43 38 32 28 24 19 14 11 10 9 9 8 7 6 4 2 3 3 2 1 2 4 6 8 10 8 3 1 1 0 0 0 0 0 1 1 1 1 1 0
37 43 48 47 42 35 30 26 22 16 12 11 11 10 11 11 10 8 6 6 7 4 2 2 5 6 5 5 4 4 4 2 0 0 0 0 0 0 0 0 0 0 0
36 41 46 45 42 38 33 28 22 17 16 15 13 11 12 12 12 11 9 9 10 8 5 4 6 6 5 3 4 5 5 2 0 0 0 0 0 0 0 0 0 0 0
34 39 43 41 39 36 31 25 19 17 18 18 15 12 13 14 14 13 12 12 12 11 7 5 5 7 7 7 6 6 4 1 1 0 0 0 0 0 0 0 0 0 0
31 35 37 35 32 27 25 21 17 16 18 18 17 16 15 16 17 16 14 13 13 12 8 6 6 7 8 9 8 6 2 1 1 0 0 0 0 0 0 0 0 0 0
35 36 34 30 25 22 21 21 20 19 19 19 19 18 16 16 17 18 16 13 12 11 10 9 8 7 6 7 8 6 3 2 1 0 0 0 0 0 0 0 0 0 0
42 41 36 30 25 21 21 25 26 25 23 21 19 16 13 12 12 15 15 13 11 10 10 10 8 6 4 5 6 5 4 3 2 0 0 0 0 0 0 0 1 1 0
47 45 39 33 27 22 20 24 28 27 25 21 16 11 9 7 7 8 10 10 8 9 10 9 8 6 4 4 4 3 2 1 1 0 0 0 0 1 1 1 2 1 1
51 48 41 34 28 20 16 16 21 25 24 20 15 11 9 7 6 5 5 4 4 6 8 9 8 7 4 3 2 1 0 0 0 0 0 0 1 2 2 3 2 1 0
53 48 40 33 26 17 10 8 12 20 22 20 17 15 11 8 7 6 4 2 2 3 4 6 6 5 3 1 0 0 0 0 0 0 0 0 1 3 3 3 2 1 0
51 46 37 31 23 13 7 5 9 15 20 20 19 17 14 9 7 6 6 6 5 4 3 3 3 3 2 1 0 1 1 0 0 0 0 1 2 3 4 3 2 1 0
46 42 35 28 19 10 7 6 9 14 17 17 17 16 13 10 7 6 7 9 8 6 4 2 1 1 2 1 1 1 1 1 1 1 1 2 3 3 3 3 2 1 0
41 38 33 26 18 11 7 6 8 13 15 15 15 14 11 10 8 7 9 11 10 8 6 3 1 0 1 1 1 1 2 2 2 2 2 3 3 3 3 3 2 1 0

GEFSMA_con_probscp_240.txt.gz
Probability
0 0 0 0 0 0 0 0 0 0 0 0 0 0 0 0 0 0 0 0 0 0 0 0 0 0 0 0 0 0 0 0 0 0 0 0 0 0 0 0 0 0 0
0 0 0 0 0 1 1 1 0 0 0 0 0 0 0 0 0 0 0 0 0 0 1 1 1 0 0 0 0 0 0 0 0 0 0 0 0 0 0 0 0 0 0
1 0 0 0 0 1 2 1 0 0 0 0 0 0 0 0 0 0 0 0 0 1 3 4 3 2 1 1 1 1 0 0 0 0 0 0 0 0 0 0 0 0 0
2 1 0 0 0 2 2 1 0 0 0 0 0 0 0 0 0 0 0 0 0 1 3 5 5 4 3 3 2 1 0 0 0 0 0 0 0 0 0 0 0 0 0
4 3 1 1 1 2 2 1 0 0 0 0 0 0 0 0 0 0 0 0 0 0 1 3 3 4 4 4 2 1 0 0 0 0 0 1 0 0 0 0 0 0 0
6 5 4 2 2 3 2 1 0 0 0 0 0 0 0 0 0 0 0 0 0 0 0 0 1 2 3 4 2 1 1 0 0 0 0 0 0 0 0 0 0 0 0
7 7 6 4 3 3 2 1 1 1 0 0 0 0 0 0 0 0 0 0 0 0 0 0 0 1 2 2 2 3 3 2 2 1 0 0 0 0 0 0 0 0 0
6 7 6 5 4 4 3 2 2 2 1 0 0 0 0 0 0 0 0 0 0 0 0 0 0 0 1 1 1 3 5 5 4 3 1 0 1 1 0 0 0 0 0
5 6 6 6 4 4 3 3 2 3 2 1 0 0 0 0 0 0 0 0 0 0 0 0 0 0 0 0 1 2 4 6 6 6 6 4 3 2 1 0 0 0 0
6 7 8 7 5 5 4 3 2 2 2 1 0 0 0 0 0 0 0 0 0 0 0 0 0 0 0 0 0 1 2 3 4 8 11 10 8 5 2 1 0 0 0
9 10 11 9 8 6 5 3 2 1 1 0 0 0 0 0 0 0 0 0 0 0 0 0 0 0 0 0 0 0 1 1 2 5 10 12 11 9 7 4 2 1 0
11 11 11 11 10 8 6 5 3 1 0 0 0 0 0 0 0 0 0 0 0 0 0 0 0 0 0 0 0 0 0 0 0 2 5 8 9 10 10 8 6 4 2
12 11 10 11 11 10 8 7 5 2 0 0 0 0 0 0 0 0 0 0 0 0 0 0 0 0 0 0 0 0 0 0 0 0 2 3 6 8 9 9 9 7 5
14 12 11 12 11 9 8 7 6 2 0 0 0 0 0 0 0 0 0 0 0 0 0 0 0 0 0 0 0 0 0 0 0 0 0 1 2 3 5 6 8 7 6
18 17 16 14 10 7 6 6 5 2 0 0 0 0 0 1 1 0 0 1 1 1 0 0 0 0 0 0 0 0 0 0 0 0 0 0 0 1 1 3 4 4 4
20 21 19 15 11 9 8 8 6 3 1 1 0 0 1 2 1 0 0 1 2 2 1 0 1 0 0 0 0 0 0 0 0 0 0 0 0 0 0 1 1 1 1
22 21 19 15 12 11 11 10 8 6 4 2 2 2 2 2 1 0 0 1 2 2 1 0 0 0 0 0 0 0 0 0 0 0 0 0 0 0 0 0 0 0 0
21 19 16 13 11 11 11 10 9 8 8 6 5 5 3 1 0 0 0 1 1 1 0 0 0 0 0 0 0 0 0 0 0 0 0 0 0 0 0 0 0 0 0
16 15 13 11 10 10 11 11 11 11 11 9 9 8 6 4 2 1 1 1 0 0 0 0 0 0 0 0 0 0 0 0 0 0 0 0 0 0 0 0 0 0 0
13 11 9 8 10 13 14 15 14 13 12 11 10 10 9 8 6 4 2 1 0 0 0 0 0 0 0 0 0 0 0 0 0 0 0 0 0 0 0 0 0 0 0
14 12 9 9 12 16 16 16 15 13 11 9 9 9 9 9 7 5 2 1 1 2 1 1 0 0 0 0 0 0 0 0 0 0 0 0 0 0 0 0 0 0 0
17 15 13 11 13 14 13 11 10 8 7 6 6 7 7 6 5 4 2 1 1 2 2 2 1 1 1 1 0 0 0 0 0 0 0 0 0 0 0 0 0 0 0
19 17 15 13 12 12 9 6 4 4 3 3 5 6 6 4 4 3 2 1 1 1 2 2 2 2 2 1 0 0 0 0 0 0 0 0 0 0 0 0 0 0 0
20 17 14 13 13 11 8 4 2 2 3 4 6 7 6 5 4 3 3 2 2 1 1 1 1 1 1 1 0 0 0 0 0 0 0 0 0 0 0 0 0 0 0
22 17 14 13 12 9 5 4 3 3 5 6 7 7 6 4 3 3 3 2 2 2 1 1 0 0 0 0 0 0 0 0 0 0 0 1 1 1 1 1 0 0 0
22 18 13 12 11 7 3 3 3 4 6 6 6 6 6 4 3 3 3 1 1 2 2 2 1 0 0 0 0 0 0 0 0 0 1 2 2 2 2 1 0 0 0

GEFSMA_con_probscp_246.txt.gz
Probability
0 0 0 0 0 0 0 0 0 0 0 0 0 0 0 0 0 0 0 1 3 3 2 1 2 3 4 4 3 3 2 3 3 3 3 3 3 3 3 2 1 0 0
0 0 0 0 0 0 0 0 0 0 0 0 0 0 0 0 0 0 0 2 3 3 3 3 3 4 5 4 3 3 3 3 3 3 3 3 3 3 3 1 0 0 0
0 0 0 0 0 0 0 0 0 0 0 0 0 0 0 0 0 0 0 1 3 3 3 4 5 6 6 5 4 4 3 2 2 2 3 3 2 2 2 1 0 0 0
0 0 0 0 0 0 0 0 0 0 0 0 0 0 0 0 0 0 0 1 2 3 3 4 6 7 6 5 4 4 3 2 1 1 2 1 1 1 1 0 0 0 0
0 0 0 0 0 0 0 1 1 1 0 0 0 0 0 0 0 0 0 0 1 2 3 4 6 6 5 4 3 3 2 1 0 0 0 0 0 0 0 0 0 0 0
0 0 0 0 0 0 0 1 1 1 0 0 0 0 0 0 0 0 0 0 0 1 1 2 4 5 6 5 4 2 1 1 0 0 0 0 0 0 0 0 0 0 0
1 1 0 0 0 0 0 0 0 0 0 0 0 0 0 0 0 0 0 0 0 0 0 1 2 3 5 5 4 2 1 0 0 0 0 0 0 0 0 0 0 0 0
3 3 1 0 0 0 0 0 0 1 1 1 1 1 1 0 0 0 0 0 0 0 0 0 1 1 2 2 2 2 2 1 0 0 0 0 0 0 0 1 1 0 0
3 2 1 0 1 1 1 1 1 2 2 2 2 2 2 1 0 0 0 0 0 0 0 0 0 0 0 0 0 1 2 1 0 0 0 0 0 0 0 1 1 0 0
1 1 1 1 2 3 2 3 3 3 3 3 3 3 2 1 0 0 0 0 0 0 0 0 0 0 0 0 0 0 1 1 0 0 0 1 1 0 0 1 1 0 0
1 2 2 3 5 4 3 3 3 3 3 3 3 3 2 1 0 0 0 0 0 0 0 0 0 0 0 0 0 0 0 0 0 0 0 1 1 1 0 0 0 1 1
5 5 6 6 6 4 2 2 2 2 3 3 3 2 1 0 0 0 0 0 0 0 0 0 0 0 0 0 0 0 0 0 0 0 0 1 1 1 1 1 2 2 2
8 9 9 8 6 3 1 1 2 2 2 2 2 1 1 0 0 0 0 0 0 0 0 0 0 0 0 0 0 0 0 0 0 0 0 0 0 0 1 2 3 3 2
10 11 11 9 7 4 2 2 3 3 2 1 1 1 1 0 0 0 0 1 1 0 0 0 0 0 1 1 1 0 0 0 0 0 0 0 0 0 0 1 1 1 1
11 12 12 12 10 7 5 4 4 3 2 2 2 2 2 1 1 0 1 2 2 1 0 0 0 0 1 2 2 1 0 0 0 0 0 0 0 0 0 0 0 0 0
15 14 14 12 11 9 6 4 4 3 2 2 1 2 2 2 1 1 2 3 3 2 0 0 0 0 1 2 2 2 1 0 0 0 0 0 0 0 0 0 0 0 0
18 17 15 12 9 7 4 3 3 3 3 2 1 1 2 2 2 2 3 3 3 2 1 1 1 0 0 0 1 2 1 0 0 0 0 0 0 0 0 0 0 0 0
19 18 15 11 6 3 2 2 3 3 3 2 2 2 2 2 2 2 2 3 3 3 2 2 2 1 0 0 0 1 1 0 0 0 0 0 0 0 0 0 0 0 0
17 15 13 8 4 4 5 5 4 3 1 1 1 3 4 3 2 2 2 3 3 3 3 3 2 1 0 0 0 0 0 0 0 0 0 0 0 0 0 0 0 0 0
14 12 9 6 4 5 7 7 6 4 2 1 0 2 4 4 2 2 4 5 3 2 3 3 2 1 1 1 1 1 0 0 0 0 0 0 0 0 0 0 0 0 0
12 10 8 6 5 6 6 7 7 6 5 3 1 1 2 2 1 2 4 4 3 3 3 2 1 0 1 2 2 2 1 0 0 0 0 0 0 0 0 0 0 0 0
13 12 10 8 7 7 6 6 7 8 7 4 3 2 2 1 1 1 1 2 2 2 2 2 1 0 0 1 3 3 2 1 1 1 0 0 0 0 0 0 0 0 0
15 14 13 11 10 8 6 4 4 6 6 6 6 6 5 4 2 1 0 0 1 1 1 2 1 1 1 1 2 3 3 2 2 2 1 0 0 0 0 0 0 0 0
14 15 15 14 11 8 5 2 2 3 6 8 9 8 5 4 2 1 0 0 0 1 1 1 2 2 2 1 2 3 3 3 2 2 2 1 0 1 1 0 0 0 0
14 15 15 14 11 7 4 2 1 4 7 8 8 6 3 1 0 0 0 0 0 1 1 1 2 2 2 1 2 3 3 3 1 1 1 2 2 2 2 1 0 0 0
15 14 14 13 11 7 4 1 1 4 7 8 6 4 1 0 0 0 0 0 0 0 0 0 1 2 2 1 1 2 3 3 2 1 1 2 3 3 3 2 1 0 0